TimePDT,TemperatureF,Dew PointF,Humidity,Sea Level PressureIn,VisibilityMPH,Wind Direction,Wind SpeedMPH,Gust SpeedMPH,PrecipitationIn,Events,Conditions,WindDirDegrees,DateUTC
12:53 AM,71.1,37.0,29,29.83,10.0,SSW,6.9,-,N/A,,Clear,200,2013-09-13 07:53:00
1:53 AM,70.0,35.1,28,29.82,10.0,SW,5.8,-,N/A,,Clear,220,2013-09-13 08:53:00
2:53 AM,68.0,36.0,31,29.81,10.0,Calm,Calm,-,N/A,,Clear,0,2013-09-13 09:53:00
3:53 AM,68.0,36.0,31,29.82,10.0,Calm,Calm,-,N/A,,Clear,0,2013-09-13 10:53:00
4:53 AM,63.0,36.0,37,29.83,10.0,South,6.9,-,N/A,,Clear,190,2013-09-13 11:53:00
5:53 AM,63.0,37.9,40,29.83,10.0,South,4.6,-,N/A,,Clear,190,2013-09-13 12:53:00
6:53 AM,63.0,37.0,38,29.84,10.0,SSW,6.9,-,N/A,,Clear,210,2013-09-13 13:53:00
7:53 AM,70.0,39.9,33,29.83,10.0,SSW,4.6,-,N/A,,Clear,210,2013-09-13 14:53:00
8:53 AM,79.0,37.0,22,29.82,10.0,Calm,Calm,-,N/A,,Clear,0,2013-09-13 15:53:00
9:53 AM,82.9,39.9,22,29.81,10.0,Variable,4.6,-,N/A,,Clear,0,2013-09-13 16:53:00
10:53 AM,86.0,42.1,21,29.81,10.0,Calm,Calm,-,N/A,,Clear,0,2013-09-13 17:53:00
11:53 AM,89.1,42.1,19,29.79,10.0,North,8.1,-,N/A,,Clear,360,2013-09-13 18:53:00
12:53 PM,91.0,41.0,17,29.76,10.0,Variable,5.8,17.3,N/A,,Clear,0,2013-09-13 19:53:00
1:53 PM,91.9,39.9,16,29.74,10.0,North,4.6,-,N/A,,Clear,10,2013-09-13 20:53:00
2:53 PM,93.9,39.0,15,29.71,10.0,North,6.9,-,N/A,,Clear,10,2013-09-13 21:53:00
3:53 PM,93.9,39.0,15,29.69,10.0,NW,4.6,-,N/A,,Clear,310,2013-09-13 22:53:00
4:53 PM,93.9,39.0,15,29.68,10.0,NW,3.5,-,N/A,,Clear,310,2013-09-13 23:53:00
5:53 PM,93.0,43.0,18,29.68,10.0,WSW,13.8,-,N/A,,Clear,250,2013-09-14 00:53:00
6:53 PM,89.1,42.1,19,29.69,10.0,West,15.0,-,N/A,,Clear,280,2013-09-14 01:53:00
7:53 PM,84.9,44.1,24,29.71,10.0,WNW,10.4,-,N/A,,Clear,290,2013-09-14 02:53:00
8:53 PM,82.0,44.1,26,29.72,10.0,West,10.4,-,N/A,,Clear,280,2013-09-14 03:53:00
9:53 PM,79.0,45.0,30,29.73,10.0,WNW,5.8,-,N/A,,Clear,290,2013-09-14 04:53:00
10:53 PM,75.0,42.1,31,29.73,10.0,South,5.8,-,N/A,,Clear,190,2013-09-14 05:53:00
11:53 PM,73.0,43.0,34,29.73,10.0,SSW,4.6,-,N/A,,Clear,210,2013-09-14 06:53:00